This is the latest recevied weather packets stored in our database for station/object KE8AFF-13. If no packets are shown the sender has not sent any weather packets the latest 10 day(s).
| Time | Temp. | Humidity | Pressure | Rain* | Wind** | Luminosity | Snow |
|---|---|---|---|---|---|---|---|
| 1778087358 | 12.78° C | 56% | 1012.1 hPa | 0 mm | - | 491 W/m² | - |
| 1778087054 | 12.78° C | 58% | 1012.2 hPa | 0 mm | - | 926 W/m² | - |
| 1778086753 | 12.78° C | 60% | 1012.2 hPa | 0 mm | - | 585 W/m² | - |
| 1778086451 | 12.22° C | 63% | 1012.3 hPa | 0 mm | - | 654 W/m² | - |
| 1778086147 | 12.22° C | 63% | 1012 hPa | 0 mm | - | 564 W/m² | - |
| 1778085843 | 12.78° C | 60% | 1012.1 hPa | 0 mm | - | 450 W/m² | - |
| 1778085542 | 12.22° C | 64% | 1012.1 hPa | 0 mm | - | 661 W/m² | - |
| 1778085236 | 12.22° C | 65% | 1012.2 hPa | 0 mm | - | 520 W/m² | - |
| 1778084931 | 12.22° C | 62% | 1012 hPa | 0 mm | - | 858 W/m² | - |
| 1778084630 | 12.22° C | 67% | 1012.2 hPa | 0 mm | - | 671 W/m² | - |
| 1778084327 | 12.78° C | 64% | 1012.5 hPa | 0 mm | - | 1078 W/m² | - |
| 1778084023 | 12.78° C | 67% | 1012.5 hPa | 0 mm | - | 384 W/m² | - |
| 1778083716 | 12.22° C | 69% | 1012.6 hPa | 0 mm | - | 572 W/m² | - |
| 1778083412 | 12.78° C | 68% | 1012.6 hPa | 0 mm | - | 422 W/m² | - |
| 1778083111 | 11.67° C | 69% | 1012.5 hPa | 0 mm | - | 512 W/m² | - |
| 1778082807 | 11.67° C | 68% | 1012.2 hPa | 0 mm | - | 633 W/m² | - |
| 1778081679 | 11.67° C | 71% | 1012.1 hPa | 0 mm | - | 749 W/m² | - |
| 1778081377 | 11.11° C | 72% | 1011.8 hPa | 0 mm | - | 777 W/m² | - |
| 1778081073 | 11.67° C | 71% | 1011.9 hPa | 0 mm | - | 780 W/m² | - |
| 1778080772 | 11.11° C | 73% | 1011.9 hPa | 0 mm | - | 769 W/m² | - |
| 1778080469 | 11.11° C | 73% | 1012.3 hPa | 0 mm | - | 768 W/m² | - |
| 1778080167 | 10.56° C | 73% | 1012 hPa | 0 mm | - | 766 W/m² | - |
| 1778079862 | 11.11° C | 72% | 1011.8 hPa | 0 mm | - | 770 W/m² | - |
| 1778079560 | 11.11° C | 73% | 1011.9 hPa | 0 mm | - | 773 W/m² | - |
| 1778079256 | 10.56° C | 75% | 1011.7 hPa | 0 mm | - | 779 W/m² | - |
* Rain latest hour (hover to see other rain measurements)
** Current wind speed in m/s (hover to see current wind gust speed)